PROFILE

 METAR AND TAF INFORMATION
ADDS - METARS form results

(0119 UTC 20 February 2020)
http://aviationweather.gov/metar/data/
 
EIDW 200100Z 21010KT 180V240 9999 -RA FEW011 SCT014 BKN050 10/08 Q1000 NOSIG
EIDW 200030Z 21009KT 9999 -RA SCT011 SCT014 BKN029 09/08 Q1001 NOSIG
TAF EIDW 192300Z 2000/2024 22014KT 9999 SCT012 BKN015 PROB40 TEMPO 2000/2003 -RA BKN012 TEMPO 2003/2005 21015G25KT TEMPO 2003/2008 -RA BKN012 BECMG 2005/2007 30018G33KT PROB40 TEMPO 2005/2008 4000 RA BKN008 BECMG 2007/2009 27015KT BECMG 2009/2011 27018G28KT BECMG 2011/2013 27020G33KT TEMPO 2011/2016 -SHRA SCT018CB TEMPO 2014/2017 26023G38KT BECMG 2020/2022 24018G28KT 

 AIRPORT MAP

 RUNWAY INFORMATION
Runway 10 Runway length 8652 ft Runway width 148 ft
Runway elevation 242 ft Runway displaced threshold 0 ft Runway heading 95
Runway 28 Runway length 8652 ft Runway width 148 ft
Runway elevation 202 ft Runway displaced threshold 0 ft Runway heading 275
Runway 11 Runway length 4393 ft Runway width 200 ft
Runway elevation 217 ft Runway displaced threshold 279 ft Runway heading 105
Runway 29 Runway length 4393 ft Runway width 200 ft
Runway elevation 216 ft Runway displaced threshold 0 ft Runway heading 285
Runway 16 Runway length 6798 ft Runway width 200 ft
Runway elevation 217 ft Runway displaced threshold 0 ft Runway heading 157
Runway 34 Runway length 6798 ft Runway width 200 ft
Runway elevation 202 ft Runway displaced threshold 0 ft Runway heading 337

 AIRPORT FREQUENCIES
Type APP Name APP Frequency 121.1 MHZ
Type ATIS Name ATIS Frequency 124.525 MHZ
Type CLD Name CLNC DEL Frequency 121.875 MHZ
Type GND Name GND Frequency 121.8 MHZ
Type INFO Name FIS Frequency 118.5 MHZ
Type TWR Name TWR Frequency 118.6 MHZ

 AIRPORT NEAR NAVIGATION AIDS
Type VOR-DME Name Dublin Frequency 111200 KHZ
Type VOR-DME Name Dublin Frequency 114900 KHZ
Type NDB Name Garristown Frequency 407 KHZ
Type NDB-DME Name Gormanston Frequency 334 KHZ
Type DME Name Dublin Frequency 108900 KHZ
Type NDB Name Killiney Frequency 378 KHZ
Type NDB Name Rush Frequency 326 KHZ